1487206800.52,2359,12.81,74798.0,-5.45,-34.01,-34.35,0,*6E
1487206801.8,2360,12.75,74796.8,-5.45,-34.01,-34.31,0,*60
1487206803.09,2361,12.75,74798.8,-5.45,-33.73,-34.01,0,*60
1487206804.36,2362,12.75,74798.3,-5.45,-33.77,-34.19,0,*6E
1487206805.61,2363,12.81,74802.5,-5.45,-33.95,-34.19,0,*63
1487206806.89,2364,12.81,74802.0,-5.45,-34.01,-34.31,0,*64
1487206808.13,2365,12.75,74796.5,-5.49,-34.19,-34.41,0,*67
1487206809.38,2366,12.81,74796.0,-5.45,-33.95,-34.35,0,*68
1487206810.66,2367,12.75,74798.0,-5.45,-33.73,-34.31,0,*65
1487206811.91,2368,12.75,74798.8,-5.45,-33.83,-34.19,0,*6F
1487206813.15,2369,12.81,74796.8,-5.49,-33.89,-34.25,0,*67
1487206814.43,2370,12.75,74796.8,-5.49,-34.01,-34.31,0,*6D
1487206815.68,2371,12.81,74796.0,-5.45,-33.83,-34.31,0,*6D
1487206816.93,2372,12.81,74798.5,-5.45,-33.95,-34.31,0,*69
1487206818.18,2373,12.75,74796.3,-5.49,-34.07,-34.35,0,*6C
1487206819.45,2374,12.81,74798.5,-5.49,-34.01,-34.35,0,*6D
1487206820.72,2375,12.81,74798.5,-5.49,-33.89,-34.35,0,*6B
1487206821.96,2376,12.75,74796.3,-5.49,-33.89,-34.25,0,*69
1487206823.19,2377,12.75,74798.0,-5.51,-34.01,-34.25,0,*66
1487206824.46,2378,12.81,74798.0,-5.49,-34.01,-34.35,0,*61
1487206825.7,2379,12.81,74800.8,-5.51,-33.89,-34.19,0,*60
1487206826.93,2380,12.81,74796.8,-5.51,-34.01,-34.25,0,*6E
1487206828.15,2381,12.75,74798.0,-5.51,-33.77,-34.25,0,*69
1487206829.34,2382,12.75,74798.5,-5.51,-33.83,-34.25,0,*61
1487206830.57,2383,12.75,74798.0,-5.53,-33.83,-34.25,0,*62
1487206831.76,2384,12.81,74800.0,-5.51,-33.83,-34.25,0,*67
1487206833.01,2385,12.81,74802.3,-5.51,-33.89,-34.31,0,*69
1487206834.26,2386,12.81,74798.0,-5.51,-34.01,-34.35,0,*69
1487206835.5,2387,12.75,74796.0,-5.51,-33.89,-34.35,0,*6F
1487206836.73,2388,12.81,74796.8,-5.51,-33.77,-34.07,0,*60
1487206837.96,2389,12.81,74802.0,-5.53,-33.83,-34.07,0,*68
1487206839.19,2390,12.81,74796.8,-5.53,-33.83,-34.13,0,*65
1487206840.42,2391,12.81,74796.3,-5.51,-33.43,-33.67,0,*6E
1487206841.64,2392,12.81,74796.3,-5.53,-33.55,-33.83,0,*62
1487206842.87,2393,12.75,74798.0,-5.51,-33.83,-34.19,0,*6E
1487206844.07,2394,12.75,74798.0,-5.51,-33.83,-34.07,0,*66
1487206845.31,2395,12.75,74794.0,-5.53,-33.89,-34.25,0,*6F
1487206846.54,2396,12.81,74798.8,-5.53,-33.83,-34.07,0,*66
1487206847.8,2397,12.75,74798.5,-5.53,-33.67,-33.89,0,*6C
1487206849.06,2398,12.81,74798.3,-5.53,-33.73,-34.13,0,*62
1487206850.31,2399,12.81,74796.5,-5.53,-33.89,-34.13,0,*66
1487206851.53,2400,12.75,74794.3,-5.53,-33.83,-34.25,0,*6E
1487206852.78,2401,12.75,74798.0,-5.53,-33.95,-34.31,0,*6D
1487206854.03,2402,12.75,74796.3,-5.53,-33.95,-34.31,0,*6E
1487206855.25,2403,12.75,74796.8,-5.53,-33.83,-34.25,0,*6D
1487206856.51,2404,12.75,74798.8,-5.53,-33.67,-33.89,0,*61
1487206857.75,2405,12.81,74796.3,-5.51,-33.77,-34.19,0,*6D
1487206858.98,2406,12.81,74798.3,-5.53,-33.83,-34.25,0,*68
1487206860.22,2407,12.75,74798.0,-5.53,-33.89,-34.25,0,*63
1487206861.45,2408,12.81,74798.3,-5.53,-33.83,-34.13,0,*63
1487206862.71,2409,12.75,74798.3,-5.53,-33.73,-33.95,0,*64
1487206863.94,2410,12.81,74798.8,-5.53,-33.67,-33.83,0,*6E
1487206865.14,2411,12.75,74796.3,-5.51,-33.83,-34.07,0,*6C
1487206866.39,2412,12.81,74796.5,-5.53,-33.89,-34.25,0,*67
1487206867.62,2413,12.75,74798.8,-5.53,-33.83,-34.13,0,*69
1487206868.84,2414,12.75,74798.0,-5.53,-33.83,-34.25,0,*6B
1487206870.07,2415,12.81,74798.3,-5.53,-33.83,-34.13,0,*6F
1487206871.33,2416,12.81,74796.8,-5.53,-34.07,-34.31,0,*67
1487206872.52,2417,12.75,74794.8,-5.55,-33.95,-34.25,0,*69
1487206873.75,2418,12.75,74796.8,-5.55,-33.67,-33.89,0,*6A
1487206874.97,2419,12.75,74798.0,-5.53,-33.55,-33.83,0,*66
1487206876.2,2420,12.81,74796.0,-5.55,-33.73,-34.13,0,*60
1487206877.44,2421,12.75,74796.5,-5.55,-33.89,-34.31,0,*64
1487206878.67,2422,12.75,74796.5,-5.55,-33.83,-34.31,0,*6D
1487206879.9,2423,12.75,74796.3,-5.53,-33.83,-34.07,0,*6F
1487206881.15,2424,12.75,74794.3,-5.55,-33.49,-33.73,0,*6C
1487206882.34,2425,12.75,74798.0,-5.55,-33.83,-34.25,0,*6F
1487206883.54,2426,12.75,74798.5,-5.55,-33.83,-34.25,0,*6C
1487206884.73,2427,12.81,74798.8,-5.55,-33.95,-34.41,0,*68
1487206885.94,2428,12.75,74796.0,-5.55,-33.89,-34.25,0,*68
1487206887.15,2429,12.75,74796.5,-5.55,-33.83,-34.13,0,*66
1487206888.43,2430,12.75,74796.0,-5.57,-33.73,-34.01,0,*60
1487206889.66,2431,12.75,74792.8,-5.55,-33.73,-33.95,0,*69
1487206890.89,2432,12.75,74794.3,-5.55,-33.73,-34.13,0,*63
1487206892.11,2433,12.81,74798.8,-5.55,-33.95,-34.31,0,*6A
1487206893.38,2434,12.81,74796.0,-5.53,-33.89,-34.31,0,*66
1487206894.61,2435,12.75,74794.5,-5.53,-33.83,-34.13,0,*6D
1487206895.81,2436,12.81,74796.3,-5.55,-33.83,-34.07,0,*6D
1487206897.08,2437,12.81,74798.0,-5.57,-33.89,-34.19,0,*6B
1487206898.33,2438,12.81,74796.5,-5.55,-33.49,-33.73,0,*61
1487206899.56,2439,12.75,74796.3,-5.55,-33.55,-33.73,0,*6D
1487206900.8,2440,12.75,74798.0,-5.57,-33.61,-33.95,0,*6E
1487206902.06,2441,12.75,74796.0,-5.53,-33.49,-33.83,0,*66
1487206903.32,2442,12.75,74796.0,-5.53,-33.73,-34.13,0,*62
1487206904.51,2443,12.75,74794.5,-5.55,-33.83,-34.25,0,*6F
1487206905.79,2444,12.75,74796.8,-5.57,-33.77,-34.01,0,*67
1487206907.03,2445,12.75,74796.0,-5.55,-33.89,-34.31,0,*66
1487206908.23,2446,12.75,74798.5,-5.55,-33.67,-33.95,0,*6C
1487206909.49,2447,12.81,74796.0,-5.55,-33.49,-33.73,0,*69
1487206910.71,2448,12.81,74796.0,-5.55,-33.31,-33.67,0,*6C
1487206911.94,2449,12.75,74798.0,-5.55,-33.31,-33.55,0,*6C
1487206913.14,2450,12.75,74798.5,-5.55,-33.37,-33.67,0,*63
1487206914.37,2451,12.75,74796.5,-5.55,-33.49,-33.83,0,*61
1487206915.6,2452,12.75,74798.3,-5.55,-33.49,-33.83,0,*62
1487206916.85,2453,12.75,74798.8,-5.53,-33.55,-33.89,0,*62
1487206918.11,2454,12.81,74796.8,-5.53,-33.73,-34.13,0,*65
1487206919.35,2455,12.75,74796.5,-5.53,-33.89,-34.25,0,*64
1487206920.58,2456,12.75,74796.0,-5.55,-33.37,-33.73,0,*60
1487206921.84,2457,12.81,74798.8,-5.53,-33.49,-33.83,0,*61
1487206923.07,2458,12.75,74798.5,-5.53,-33.83,-34.13,0,*66
1487206924.33,2459,12.75,74796.5,-5.53,-33.73,-33.95,0,*61
1487206925.52,2460,12.75,74796.0,-5.55,-33.55,-33.95,0,*69
1487206926.8,2461,12.75,74798.0,-5.53,-33.31,-33.89,0,*61
1487206928.0,2462,12.75,74798.5,-5.55,-33.67,-33.95,0,*6A
1487206929.23,2463,12.75,74792.5,-5.55,-33.73,-34.07,0,*62
1487206930.46,2464,12.75,74798.0,-5.55,-33.73,-34.07,0,*65
1487206931.68,2465,12.75,74796.5,-5.53,-33.83,-34.25,0,*6D
1487206932.94,2466,12.75,74796.5,-5.55,-33.73,-33.89,0,*66
1487206934.16,2467,12.81,74798.8,-5.55,-33.31,-33.55,0,*60
1487206935.39,2468,12.75,74798.3,-5.55,-32.85,-33.21,0,*62
1487206936.61,2469,12.75,74796.8,-5.55,-33.55,-33.73,0,*68
1487206937.86,2470,12.75,74794.5,-5.51,-33.61,-33.89,0,*66
1487206939.12,2471,12.81,74796.8,-5.53,-33.73,-33.95,0,*6B
1487206940.37,2472,12.75,74798.3,-5.53,-33.67,-33.89,0,*60
1487206941.6,2473,12.75,74794.8,-5.51,-33.43,-33.67,0,*65
1487206942.85,2474,12.75,74794.0,-5.51,-33.61,-33.89,0,*62
1487206944.13,2475,12.75,74792.5,-5.53,-33.49,-33.73,0,*6E
1487206945.39,2476,12.75,74796.5,-5.53,-33.73,-34.07,0,*60
1487206946.65,2477,12.75,74796.0,-5.53,-33.73,-33.95,0,*6D
1487206947.88,2478,12.75,74794.3,-5.53,-33.67,-34.07,0,*6B
1487206949.13,2479,12.75,74792.8,-5.53,-33.55,-33.89,0,*6A
1487206950.34,2480,12.81,74798.3,-5.51,-33.67,-34.07,0,*6E
1487206951.54,2481,12.75,74794.5,-5.51,-33.67,-34.07,0,*6F
1487206952.77,2482,12.81,74796.8,-5.53,-33.67,-33.95,0,*62
1487206954.06,2483,12.75,74794.5,-5.53,-33.73,-34.01,0,*6C
1487206955.28,2484,12.75,74792.0,-5.51,-34.01,-34.25,0,*6D
1487206956.5,2485,12.75,74792.8,-5.53,-33.95,-34.25,0,*64
1487206957.73,2486,12.75,74798.5,-5.53,-33.55,-33.83,0,*60
1487206958.99,2487,12.75,74794.3,-5.53,-33.73,-34.13,0,*6B
1487206960.25,2488,12.75,74792.5,-5.53,-33.73,-34.13,0,*64
1487206961.47,2489,12.75,74794.8,-5.53,-33.83,-34.07,0,*6F
1487206962.73,2490,12.75,74796.3,-5.53,-33.55,-33.73,0,*68
1487206964.01,2491,12.75,74794.5,-5.53,-33.49,-33.77,0,*60
1487206965.29,2492,12.75,74794.8,-5.53,-33.49,-33.73,0,*67
1487206966.49,2493,12.75,74794.8,-5.51,-33.21,-33.55,0,*6E
1487206967.72,2494,12.75,74796.3,-5.51,-33.31,-33.67,0,*69
1487206968.93,2495,12.81,74798.0,-5.51,-33.67,-34.07,0,*6A
1487206970.17,2496,12.75,74794.5,-5.51,-33.77,-34.19,0,*67
1487206971.42,2497,12.75,74794.8,-5.53,-33.89,-34.13,0,*6F
1487206972.68,2498,12.75,74794.8,-5.53,-33.67,-33.89,0,*64
1487206973.93,2499,12.75,74794.8,-5.53,-33.55,-33.89,0,*64
1487206975.19,2500,12.75,74798.0,-5.53,-33.73,-33.95,0,*6C
1487206976.45,2501,12.75,74796.8,-5.53,-33.67,-33.89,0,*65
1487206977.67,2502,12.75,74798.5,-5.53,-33.67,-33.95,0,*6B
1487206978.9,2503,12.75,74794.5,-5.51,-33.83,-34.19,0,*61
1487206980.15,2504,12.75,74798.5,-5.53,-33.95,-34.31,0,*69
1487206981.37,2505,12.81,74796.8,-5.53,-33.67,-33.95,0,*6C
1487206982.63,2506,12.75,74796.8,-5.53,-33.31,-33.55,0,*60
1487206983.86,2507,12.75,74792.3,-5.53,-33.37,-33.67,0,*66
1487206985.11,2508,12.75,74798.0,-5.51,-33.43,-33.77,0,*69
1487206986.36,2509,12.75,74798.0,-5.51,-33.27,-33.61,0,*6D
1487206987.61,2510,12.75,74792.5,-5.51,-33.27,-33.61,0,*65
1487206988.84,2511,12.75,74792.3,-5.51,-33.73,-34.07,0,*62
1487206990.06,2512,12.75,74792.5,-5.51,-33.77,-34.25,0,*65
1487206991.29,2513,12.81,74796.5,-5.53,-33.83,-34.07,0,*6D
1487206992.57,2514,12.75,74796.0,-5.53,-33.49,-33.89,0,*6D
1487206993.82,2515,12.75,74796.8,-5.51,-33.43,-33.77,0,*65
1487206995.08,2516,12.75,74798.0,-5.53,-33.73,-34.07,0,*67
1487206996.34,2517,12.75,74796.0,-5.51,-33.61,-34.01,0,*61
1487206997.57,2518,12.75,74796.0,-5.51,-33.67,-34.01,0,*68
1487206998.79,2519,12.75,74794.5,-5.53,-33.95,-34.25,0,*60
1487207000.03,2520,12.75,74792.3,-5.51,-33.89,-34.35,0,*64
1487207001.26,2521,12.75,74796.8,-5.53,-33.83,-34.13,0,*69
1487207002.52,2522,12.75,74796.5,-5.53,-33.49,-33.83,0,*62
1487207003.77,2523,12.75,74792.3,-5.51,-33.43,-33.77,0,*60
1487207005.02,2524,12.75,74798.5,-5.51,-33.49,-33.77,0,*6D
1487207006.25,2525,12.81,74798.5,-5.51,-33.77,-34.07,0,*61
1487207007.47,2526,12.75,74792.0,-5.51,-33.83,-34.19,0,*66
1487207008.69,2527,12.75,74794.5,-5.51,-33.61,-33.83,0,*6F
1487207009.95,2528,12.75,74794.8,-5.51,-33.27,-33.49,0,*64
1487207011.2,2529,12.75,74794.3,-5.51,-33.31,-33.61,0,*68
1487207012.44,2530,12.75,74796.3,-5.51,-33.61,-33.77,0,*62
1487207013.67,2531,12.75,74796.5,-5.51,-33.77,-34.07,0,*64
1487207014.89,2532,12.81,74796.0,-5.53,-33.83,-34.25,0,*6E
1487207016.09,2533,12.75,74796.3,-5.51,-33.83,-34.25,0,*6D
1487207017.36,2534,12.75,74796.5,-5.53,-33.89,-34.31,0,*67
1487207018.56,2535,12.75,74798.0,-5.51,-34.07,-34.41,0,*62
1487207019.82,2536,12.81,74796.8,-5.51,-33.73,-33.89,0,*66
1487207021.08,2537,12.81,74796.8,-5.53,-33.49,-33.83,0,*66
1487207022.35,2538,12.75,74794.5,-5.53,-33.31,-33.61,0,*6A
1487207023.6,2539,12.81,74796.5,-5.51,-33.43,-33.77,0,*6B
1487207024.83,2540,12.75,74798.5,-5.51,-33.67,-33.89,0,*62
1487207026.05,2541,12.75,74792.5,-5.51,-33.61,-33.83,0,*6F
1487207027.3,2542,12.75,74792.5,-5.51,-33.61,-33.89,0,*66
1487207028.56,2543,12.75,74794.3,-5.51,-33.77,-34.01,0,*67
1487207029.81,2544,12.75,74798.0,-5.51,-33.61,-33.89,0,*60
1487207031.03,2545,12.75,74794.5,-5.51,-33.67,-33.89,0,*67
1487207032.28,2546,12.75,74794.5,-5.51,-33.61,-33.77,0,*63
1487207033.54,2547,12.75,74794.0,-5.51,-33.49,-33.89,0,*69
1487207034.78,2548,12.75,74798.3,-5.51,-33.61,-33.89,0,*6C
1487207036.03,2549,12.75,74796.3,-5.51,-33.31,-33.61,0,*6E
1487207037.29,2550,12.75,74792.8,-5.51,-33.09,-33.49,0,*67
1487207038.52,2551,12.75,74794.8,-5.45,-33.03,-33.37,0,*60
1487207039.78,2552,12.75,74792.5,-5.51,-33.49,-33.77,0,*6C
1487207041.05,2553,12.75,74792.8,-5.49,-33.77,-34.19,0,*66
1487207042.3,2554,12.81,74800.3,-5.45,-33.77,-34.13,0,*67
1487207043.54,2555,12.75,74794.8,-5.49,-33.89,-34.25,0,*6E
1487207044.8,2556,12.75,74794.5,-5.49,-33.31,-33.67,0,*6F
1487207046.04,2557,12.75,74796.8,-5.51,-33.77,-34.19,0,*6B
1487207047.29,2558,12.75,74794.8,-5.45,-33.83,-34.19,0,*6A
1487207048.56,2559,12.75,74794.3,-5.49,-33.77,-34.19,0,*6C
1487207049.81,2560,12.75,74792.3,-5.49,-33.89,-34.25,0,*68
1487207051.09,2561,12.75,74794.5,-5.49,-33.77,-34.01,0,*6E
1487207052.31,2562,12.75,74794.5,-5.51,-33.67,-34.19,0,*6C
1487207053.51,2563,12.75,74794.8,-5.51,-33.83,-34.25,0,*68
1487207054.73,2564,12.75,74794.0,-5.51,-33.83,-34.19,0,*60
1487207055.96,2565,12.75,74794.8,-5.51,-33.49,-33.83,0,*63
1487207057.21,2566,12.75,74796.0,-5.49,-33.67,-34.01,0,*68
1487207058.41,2567,12.75,74794.3,-5.51,-33.83,-34.25,0,*6C
1487207059.66,2568,12.75,74792.3,-5.49,-33.83,-34.19,0,*65
1487207060.93,2569,12.75,74794.5,-5.49,-34.01,-34.35,0,*67
1487207062.16,2570,12.75,74792.3,-5.51,-33.77,-34.07,0,*61
1487207063.42,2571,12.75,74792.3,-5.53,-33.73,-34.07,0,*66
1487207064.64,2572,12.75,74796.8,-5.51,-33.61,-33.83,0,*6F
1487207065.89,2573,12.75,74794.5,-5.51,-33.43,-33.77,0,*65
1487207067.17,2574,12.81,74796.5,-5.53,-33.49,-33.73,0,*6E
1487207068.42,2575,12.75,74796.5,-5.51,-33.43,-33.61,0,*64
1487207069.65,2576,12.75,74792.5,-5.49,-33.67,-34.07,0,*6F
1487207070.84,2577,12.75,74792.0,-5.51,-33.83,-34.25,0,*6D
1487207072.12,2578,12.75,74796.5,-5.49,-33.77,-34.01,0,*66
1487207073.37,2579,12.75,74792.8,-5.49,-33.77,-34.07,0,*61
1487207074.62,2580,12.75,74796.0,-5.49,-33.83,-34.19,0,*63
1487207075.88,2581,12.75,74792.5,-5.51,-33.77,-34.01,0,*69
1487207077.1,2582,12.81,74796.8,-5.51,-33.61,-33.83,0,*60
1487207078.33,2583,12.75,74794.8,-5.51,-33.67,-34.01,0,*6A
1487207079.53,2584,12.75,74794.3,-5.51,-33.67,-34.07,0,*6B
1487207080.76,2585,12.75,74794.5,-5.51,-33.67,-34.01,0,*6C
1487207081.99,2586,12.75,74790.3,-5.49,-33.67,-34.07,0,*60
1487207083.26,2587,12.75,74794.0,-5.49,-33.61,-33.77,0,*67
1487207084.54,2588,12.75,74792.5,-5.49,-33.43,-33.77,0,*68
1487207085.81,2589,12.75,74796.8,-5.49,-33.77,-34.19,0,*61
1487207087.03,2590,12.75,74794.8,-5.49,-33.83,-34.25,0,*6D
1487207088.25,2591,12.81,74796.0,-5.51,-33.61,-33.83,0,*62
1487207089.51,2592,12.75,74796.0,-5.51,-33.49,-33.77,0,*60
1487207090.74,2593,12.75,74792.5,-5.51,-33.67,-34.01,0,*6B
1487207091.99,2594,12.75,74794.5,-5.49,-33.77,-34.07,0,*62
1487207093.24,2595,12.75,74792.8,-5.49,-33.61,-33.83,0,*6F
1487207094.49,2596,12.75,74790.5,-5.49,-33.31,-33.67,0,*63
1487207095.77,2597,12.75,74796.3,-5.49,-33.31,-33.49,0,*6E
1487207097.02,2598,12.75,74792.8,-5.45,-33.55,-33.73,0,*66
1487207098.28,2599,12.75,74794.0,-5.49,-33.67,-34.01,0,*68
1487207099.5,2600,12.75,74790.5,-5.49,-33.67,-34.07,0,*6D
1487207100.73,2601,12.75,74796.0,-5.49,-33.67,-34.07,0,*6C
1487207102.01,2602,12.75,74792.8,-5.49,-33.43,-33.89,0,*68
1487207103.26,2603,12.75,74792.5,-5.49,-33.77,-34.07,0,*6F
1487207104.51,2604,12.75,74792.3,-5.49,-33.67,-34.01,0,*6F
1487207105.77,2605,12.75,74792.0,-5.49,-33.49,-33.83,0,*6F
1487207107.02,2606,12.75,74792.3,-5.45,-33.55,-33.77,0,*66
1487207108.29,2607,12.75,74792.3,-5.49,-33.43,-33.77,0,*6C
1487207109.54,2608,12.75,74794.8,-5.45,-33.61,-33.83,0,*64
1487207110.8,2609,12.75,74792.3,-5.49,-33.49,-33.83,0,*63
1487207112.05,2610,12.75,74794.8,-5.45,-33.37,-33.77,0,*65
1487207113.31,2611,12.75,74794.5,-5.45,-33.37,-33.61,0,*63
1487207114.58,2612,12.75,74796.5,-5.49,-33.43,-33.77,0,*68
1487207115.83,2613,12.75,74792.5,-5.45,-33.61,-33.95,0,*69
1487207117.08,2614,12.75,74792.3,-5.45,-33.55,-33.77,0,*65
1487207118.34,2615,12.75,74792.0,-5.49,-33.67,-33.89,0,*68
1487207119.59,2616,12.75,74796.0,-5.49,-33.49,-33.83,0,*6D
1487207120.87,2617,12.75,74792.8,-5.45,-33.43,-33.77,0,*61
1487207122.09,2618,12.75,74792.5,-5.49,-33.67,-34.07,0,*64
1487207123.37,2619,12.75,74792.0,-5.49,-33.77,-34.19,0,*6B
1487207124.64,2620,12.75,74794.3,-5.49,-33.77,-34.01,0,*68
1487207125.87,2621,12.75,74794.5,-5.45,-33.55,-33.83,0,*68
1487207127.1,2622,12.75,74792.0,-5.49,-33.67,-34.07,0,*6D
1487207128.38,2623,12.75,74794.3,-5.45,-33.61,-34.01,0,*60
1487207129.6,2624,12.75,74794.0,-5.45,-33.55,-33.83,0,*6D
1487207130.88,2625,12.75,74790.3,-5.49,-33.49,-33.77,0,*66
1487207132.14,2626,12.75,74792.0,-5.49,-33.67,-34.01,0,*6F
1487207133.39,2627,12.75,74794.3,-5.49,-33.67,-34.01,0,*6E
1487207134.68,2628,12.75,74794.0,-5.45,-33.73,-34.01,0,*68
1487207135.93,2629,12.75,74794.5,-5.45,-33.61,-33.95,0,*60
1487207137.21,2630,12.75,74794.3,-5.49,-33.43,-33.77,0,*68
1487207138.46,2631,12.75,74794.8,-5.49,-33.67,-33.89,0,*6E
1487207139.74,2632,12.75,74794.3,-5.45,-33.61,-34.01,0,*60
1487207141.01,2633,12.75,74792.5,-5.49,-33.61,-33.89,0,*6A
1487207142.26,2634,12.75,74794.3,-5.45,-33.55,-33.77,0,*67
1487207143.51,2635,12.75,74792.5,-5.45,-33.43,-33.83,0,*6A
1487207144.79,2636,12.75,74794.8,-5.45,-33.43,-33.77,0,*62
1487207146.07,2637,12.75,74794.3,-5.45,-33.61,-34.01,0,*65
1487207147.32,2638,12.75,74792.3,-5.45,-33.55,-33.77,0,*6B
1487207148.57,2639,12.75,74792.3,-5.45,-33.61,-33.83,0,*66
1487207149.85,2640,12.75,74794.3,-5.45,-33.61,-34.01,0,*65
1487207151.08,2641,12.75,74796.0,-5.45,-33.55,-33.95,0,*69
1487207152.33,2642,12.75,74790.8,-5.45,-33.61,-33.83,0,*6A
1487207153.55,2643,12.75,74794.0,-5.45,-33.55,-33.83,0,*6C
1487207154.81,2644,12.75,74794.8,-5.49,-33.67,-34.01,0,*6B
1487207156.08,2645,12.75,74792.0,-5.45,-33.77,-34.19,0,*6E
1487207157.33,2646,12.75,74792.5,-5.45,-33.83,-34.19,0,*66
1487207158.61,2647,12.75,74792.3,-5.49,-34.01,-34.35,0,*68
1487207159.86,2648,12.75,74790.8,-5.45,-34.13,-34.35,0,*68
1487207161.09,2649,12.75,74792.0,-5.49,-34.07,-34.41,0,*63
1487207162.35,2650,12.75,74794.5,-5.45,-33.73,-34.13,0,*64
1487207163.6,2651,12.75,74792.8,-5.45,-33.73,-34.13,0,*65
1487207164.88,2652,12.75,74792.5,-5.49,-33.61,-33.89,0,*6D
1487207166.14,2653,12.75,74794.0,-5.45,-33.37,-33.77,0,*62
1487207167.39,2654,12.75,74794.0,-5.49,-33.49,-33.83,0,*6B
1487207168.66,2655,12.75,74792.0,-5.45,-33.43,-33.61,0,*60
1487207169.92,2656,12.75,74792.0,-5.49,-33.67,-34.01,0,*68
1487207171.17,2657,12.75,74794.3,-5.45,-33.83,-34.19,0,*66
1487207172.42,2658,12.75,74792.3,-5.45,-33.77,-34.13,0,*68
1487207173.67,2659,12.75,74794.3,-5.49,-33.83,-34.19,0,*64
1487207174.91,2660,12.75,74792.0,-5.49,-33.89,-34.25,0,*6B
1487207176.19,2661,12.75,74790.3,-5.45,-34.01,-34.31,0,*64
1487207177.44,2662,12.75,74790.5,-5.45,-33.95,-34.35,0,*69
1487207178.69,2663,12.75,74794.3,-5.49,-34.01,-34.25,0,*6F
1487207179.93,2664,12.75,74794.3,-5.45,-33.95,-34.35,0,*6F
1487207181.21,2665,12.75,74794.0,-5.49,-34.19,-34.35,0,*61
1487207182.47,2666,12.75,74792.5,-5.49,-33.89,-34.35,0,*6C
1487207183.72,2667,12.75,74790.5,-5.49,-33.83,-34.19,0,*69
1487207184.98,2668,12.75,74790.8,-5.45,-33.73,-34.07,0,*6A
1487207186.2,2669,12.75,74792.5,-5.45,-33.55,-33.95,0,*63
1487207187.43,2670,12.75,74792.8,-5.49,-33.83,-34.25,0,*60
1487207188.67,2671,12.75,74790.5,-5.45,-33.95,-34.19,0,*65
1487207189.92,2672,12.75,74790.5,-5.45,-33.61,-33.95,0,*6E
1487207191.2,2673,12.75,74794.5,-5.49,-33.43,-33.77,0,*6F
1487207192.42,2674,12.75,74792.3,-5.49,-33.67,-34.07,0,*6E
1487207193.68,2675,12.75,74792.3,-5.45,-33.73,-33.95,0,*6A
1487207194.91,2676,12.75,74790.5,-5.49,-33.83,-34.07,0,*66
1487207196.15,2677,12.75,74790.5,-5.49,-33.77,-34.25,0,*6C
1487207197.43,2678,12.75,74788.3,-5.49,-33.77,-33.89,0,*62
1487207198.68,2679,12.75,74792.0,-5.49,-33.67,-33.89,0,*62
1487207199.96,2680,12.75,74794.3,-5.49,-33.61,-34.01,0,*65
1487207201.21,2681,12.75,74794.8,-5.49,-33.77,-34.07,0,*65
1487207202.45,2682,12.75,74790.8,-5.49,-33.83,-34.19,0,*62
1487207203.7,2683,12.75,74788.5,-5.49,-33.83,-34.19,0,*63
1487207204.95,2684,12.75,74788.8,-5.49,-34.01,-34.25,0,*66
1487207206.19,2685,12.75,74792.8,-5.49,-33.89,-34.25,0,*60
1487207207.46,2686,12.75,74792.0,-5.49,-33.61,-33.77,0,*65
1487207208.72,2687,12.75,74794.0,-5.49,-33.67,-34.01,0,*64
1487207209.99,2688,12.75,74790.3,-5.49,-33.77,-34.19,0,*63
1487207211.23,2689,12.75,74794.0,-5.49,-33.89,-34.25,0,*6C
1487207212.5,2690,12.75,74794.3,-5.49,-33.77,-34.19,0,*6A
1487207213.75,2691,12.75,74794.8,-5.49,-33.83,-34.19,0,*60
1487207215.0,2692,12.75,74792.3,-5.49,-34.07,-34.35,0,*66
1487207216.2,2693,12.75,74788.3,-5.51,-33.83,-34.25,0,*64
1487207217.39,2694,12.75,74792.3,-5.51,-33.83,-34.25,0,*63
1487207218.61,2695,12.75,74792.5,-5.49,-33.83,-34.25,0,*6B
1487207219.86,2696,12.75,74788.8,-5.51,-34.01,-34.35,0,*6D
1487207221.11,2697,12.75,74790.8,-5.51,-33.89,-34.19,0,*65
1487207222.33,2698,12.75,74788.8,-5.51,-33.77,-34.07,0,*64
1487207223.53,2699,12.75,74788.3,-5.51,-33.83,-34.25,0,*6E
1487207224.75,2700,12.75,74792.5,-5.51,-33.89,-34.25,0,*65
1487207226.0,2701,12.75,74792.5,-5.53,-34.07,-34.31,0,*62
1487207227.23,2702,12.75,74794.3,-5.53,-33.83,-34.07,0,*6F
1487207228.46,2703,12.75,74792.3,-5.51,-33.67,-33.89,0,*67
1487207229.69,2704,12.75,74788.8,-5.51,-33.67,-34.01,0,*67
1487207230.91,2705,12.75,74792.8,-5.51,-33.61,-33.83,0,*6D
1487207232.13,2706,12.75,74792.0,-5.51,-33.61,-33.83,0,*6E
1487207233.39,2707,12.75,74792.0,-5.51,-33.43,-33.77,0,*64
1487207234.64,2708,12.75,74794.3,-5.51,-33.49,-33.77,0,*61
1487207235.87,2709,12.75,74790.8,-5.51,-33.49,-33.83,0,*6B
1487207237.12,2710,12.75,74788.3,-5.51,-33.43,-33.77,0,*62
1487207238.4,2711,12.75,74790.5,-5.49,-33.49,-33.77,0,*60
1487207239.65,2712,12.75,74790.3,-5.45,-33.27,-33.55,0,*67
1487207240.9,2713,12.75,74788.5,-5.49,-33.67,-33.89,0,*6F
1487207242.13,2714,12.75,74788.8,-5.49,-33.67,-34.07,0,*69
1487207243.4,2715,12.75,74788.0,-5.49,-33.61,-33.89,0,*6F
1487207244.64,2716,12.75,74792.0,-5.49,-33.89,-34.25,0,*6B
1487207245.92,2717,12.75,74794.3,-5.49,-33.77,-34.01,0,*6D
1487207247.18,2718,12.75,74794.8,-5.49,-33.67,-34.01,0,*63
1487207248.43,2719,12.75,74794.0,-5.49,-33.77,-34.07,0,*65
1487207249.68,2720,12.75,74790.5,-5.49,-33.67,-33.89,0,*6F
1487207250.93,2721,12.75,74790.8,-5.45,-33.83,-34.19,0,*66
1487207252.21,2722,12.75,74794.8,-5.49,-34.01,-34.35,0,*6A
1487207253.48,2723,12.75,74792.3,-5.49,-33.77,-33.89,0,*6D
1487207254.71,2724,12.75,74792.5,-5.51,-33.67,-33.89,0,*62
1487207255.94,2725,12.75,74792.5,-5.49,-33.83,-34.07,0,*61
1487207257.18,2726,12.75,74790.3,-5.49,-33.89,-34.25,0,*68
1487207258.46,2727,12.75,74790.3,-5.49,-33.77,-34.01,0,*6E
1487207259.71,2728,12.75,74790.8,-5.51,-33.61,-33.89,0,*68
1487207260.95,2729,12.75,74792.5,-5.51,-33.77,-34.19,0,*60
1487207262.2,2730,12.75,74792.0,-5.51,-33.77,-34.19,0,*68
1487207263.42,2731,12.75,74790.5,-5.51,-33.43,-33.83,0,*6A
1487207264.63,2732,12.75,74790.0,-5.51,-33.67,-34.07,0,*64
1487207265.84,2733,12.75,74788.0,-5.51,-33.89,-34.25,0,*65
1487207267.07,2734,12.75,74794.0,-5.51,-34.01,-34.25,0,*65
1487207268.28,2735,12.75,74790.8,-5.51,-33.89,-34.25,0,*63
1487207269.51,2736,12.75,74794.3,-5.51,-33.67,-34.19,0,*6F
1487207270.75,2737,12.75,74792.8,-5.51,-33.89,-34.19,0,*6E
1487207271.98,2738,12.75,74792.0,-5.51,-33.67,-33.89,0,*6F
1487207273.21,2739,12.75,74794.0,-5.51,-33.83,-34.01,0,*63
1487207274.44,2740,12.75,74794.0,-5.51,-33.77,-34.07,0,*60
1487207275.67,2741,12.75,74790.8,-5.51,-33.49,-33.83,0,*67
1487207276.91,2742,12.75,74792.0,-5.51,-33.77,-34.19,0,*6D
1487207278.16,2743,12.75,74788.8,-5.51,-33.89,-34.19,0,*6D
1487207279.4,2744,12.75,74792.5,-5.53,-33.95,-34.31,0,*6F
1487207280.61,2745,12.75,74788.5,-5.51,-33.83,-34.07,0,*6E
1487207281.8,2746,12.75,74792.0,-5.51,-33.83,-34.25,0,*6D
1487207283.02,2747,12.75,74794.3,-5.51,-33.61,-33.83,0,*6B
1487207284.28,2748,12.75,74792.5,-5.51,-33.49,-33.89,0,*64
1487207285.48,2749,12.75,74792.0,-5.51,-33.83,-34.07,0,*62
1487207286.7,2750,12.75,74788.8,-5.51,-33.89,-34.25,0,*60
1487207287.92,2751,12.75,74790.8,-5.51,-33.77,-34.07,0,*60
1487207289.15,2752,12.75,74788.8,-5.53,-33.67,-33.83,0,*6B
1487207290.41,2753,12.75,74788.0,-5.53,-33.73,-33.95,0,*68
1487207291.61,2754,12.75,74794.3,-5.51,-33.67,-34.07,0,*64
1487207292.84,2755,12.75,74792.8,-5.51,-33.83,-34.19,0,*60
1487207294.09,2756,12.75,74794.3,-5.51,-33.61,-33.89,0,*61
1487207295.34,2757,12.75,74790.0,-5.51,-33.77,-34.01,0,*60
1487207296.56,2758,12.75,74792.3,-5.51,-33.61,-33.83,0,*65
1487207297.81,2759,12.75,74790.0,-5.51,-33.43,-33.77,0,*6F
1487207299.1,2760,12.75,74788.8,-5.53,-33.49,-33.73,0,*69
1487207300.33,2761,12.75,74788.3,-5.51,-33.67,-34.01,0,*64
1487207301.53,2762,12.75,74792.8,-5.51,-33.83,-34.25,0,*6B
1487207302.74,2763,12.75,74788.8,-5.51,-33.89,-34.25,0,*60
1487207303.99,2764,12.75,74794.0,-5.51,-33.61,-34.01,0,*67
1487207305.22,2765,12.75,74792.8,-5.51,-33.43,-33.67,0,*61